Theta_e
315 314 314 313 312 312 312 313 312 312 311 311 311 311 311 310 311 311 310 310 311 311 310 309 309 309 309 310 310 310 310 310 310 308 306 305 304 304 304 304 306 307
314 314 313 312 312 311 311 312 312 311 311 311 311 311 310 310 310 310 309 309 309 309 309 308 307 308 309 309 309 309 309 310 309 307 306 305 305 305 304 303 304 306
313 314 313 312 312 312 311 311 311 311 311 311 311 311 310 309 309 309 309 309 308 308 308 306 305 307 309 309 309 309 309 309 309 307 306 306 305 306 306 304 303 304
312 313 313 312 313 313 312 312 312 312 311 311 311 311 310 309 309 308 308 308 308 308 306 303 304 307 309 308 308 308 309 309 309 307 307 306 306 306 305 305 303 302
313 312 313 312 313 312 312 312 312 312 312 311 311 310 310 309 308 308 308 307 308 307 304 303 305 307 308 308 308 308 308 309 309 307 307 306 306 306 305 305 304 302
314 313 313 312 312 312 312 312 312 312 311 311 311 310 310 309 308 308 308 307 307 306 303 303 306 307 307 308 307 307 308 308 309 308 307 306 306 306 306 305 305 302
313 313 313 312 312 312 312 312 311 311 311 310 310 310 310 309 308 308 307 307 307 305 302 302 305 307 307 307 307 307 307 307 308 308 307 307 306 307 306 304 304 302
311 312 313 312 312 312 312 312 311 311 311 311 310 310 309 309 308 308 307 307 307 304 301 302 305 306 306 307 307 307 306 306 308 308 307 307 307 307 306 304 302 301
311 312 313 313 312 311 312 312 311 311 311 311 310 310 310 309 308 308 307 307 307 303 300 301 303 305 306 307 306 306 306 304 304 305 306 306 306 306 306 303 301 300
313 312 312 312 312 312 312 312 311 311 311 311 310 310 310 309 308 308 307 307 307 304 300 299 302 304 305 306 306 305 304 302 300 301 302 304 305 306 305 302 300 300
313 313 312 312 312 312 312 312 311 311 310 310 310 310 309 309 308 308 307 307 307 306 301 298 300 304 305 305 305 304 302 300 299 300 300 301 302 303 302 300 299 300
314 313 312 312 311 311 312 312 311 311 310 310 310 310 309 309 308 307 307 307 307 307 303 298 297 301 304 305 305 305 303 302 301 301 301 299 298 298 299 299 299 300
313 313 313 312 311 312 313 312 311 311 311 311 311 310 309 309 308 307 307 307 306 306 306 301 296 297 302 304 305 305 304 303 303 302 302 301 297 296 298 299 299 301
313 313 313 311 311 312 313 312 311 311 311 311 311 310 309 309 308 307 307 307 306 306 307 304 298 294 298 303 304 305 305 305 304 303 303 302 299 296 297 299 299 301
313 313 313 311 311 312 313 312 311 311 311 310 310 310 309 309 308 308 307 307 307 306 306 306 301 294 295 300 302 303 304 304 304 304 303 303 302 298 295 298 300 300
313 313 313 311 311 312 313 312 311 311 310 310 310 309 310 309 308 308 307 307 307 306 306 306 303 297 293 297 301 302 302 303 303 304 303 302 303 300 295 297 300 300
314 314 313 311 311 312 313 312 312 311 310 310 310 310 310 309 309 308 308 307 307 306 306 306 305 299 293 295 300 302 302 302 302 303 303 302 302 299 294 297 300 300
314 314 313 312 311 311 311 312 312 311 311 310 310 310 310 309 309 308 308 307 307 306 306 305 305 302 294 292 298 302 302 302 301 303 303 302 302 298 294 297 300 300
314 314 314 312 311 310 310 312 312 311 311 310 309 310 309 309 309 308 308 308 307 307 306 305 306 304 296 291 295 300 302 301 301 303 302 302 302 297 295 298 300 300
314 314 314 313 312 310 310 312 312 311 310 310 309 309 309 309 309 308 308 308 307 307 306 305 305 304 297 291 291 296 300 301 302 303 302 302 301 296 295 299 299 299
314 314 314 313 312 311 311 312 313 312 310 310 309 309 309 309 309 309 309 308 307 307 306 305 305 302 296 291 290 294 298 301 303 303 302 302 299 295 296 299 298 298
315 314 314 314 312 311 311 312 312 312 310 309 310 309 309 309 309 309 309 308 307 306 305 305 304 300 295 291 291 295 299 302 303 302 302 302 298 294 296 298 297 297
315 314 314 314 313 312 312 311 312 311 309 308 309 309 308 308 309 310 308 308 307 306 306 305 302 297 293 290 290 294 299 302 302 301 302 301 296 294 297 297 296 297
315 314 314 314 313 313 312 312 311 311 309 308 308 308 308 307 309 310 309 308 307 306 306 304 299 294 291 290 290 292 297 302 302 301 302 300 295 295 297 296 295 297
314 314 314 313 313 313 313 312 312 311 310 309 307 308 307 306 307 309 309 308 307 307 306 304 299 293 290 291 290 290 295 300 301 301 301 297 294 296 297 295 295 297
314 314 314 314 314 314 314 313 313 312 310 309 308 308 308 306 306 308 308 308 308 307 306 304 300 293 290 290 290 291 295 299 301 302 300 295 294 297 297 295 296 297
Wind_Speed
7 6 5 6 6 5 4 4 3 2 3 4 5 6 8 9 8 8 8 8 7 6 7 9 9 9 8 6 6 7 9 8 5 7 9 11 12 14 15 16 15 16
8 8 6 6 6 6 5 4 3 2 3 4 5 7 7 8 8 6 6 6 7 8 10 11 11 9 7 5 5 6 8 7 4 6 9 10 13 15 17 19 17 17
8 8 7 6 5 5 5 5 4 3 3 4 6 7 6 8 7 6 6 6 8 11 13 13 12 8 5 4 6 7 8 6 3 6 8 9 12 15 17 19 19 19
9 8 8 7 6 5 5 6 6 5 4 4 5 6 5 7 6 6 7 8 10 13 14 13 10 7 5 4 6 7 7 5 3 5 6 8 11 13 16 18 20 20
9 8 8 7 7 6 6 6 7 7 6 5 5 5 4 6 6 6 8 9 11 14 14 12 9 6 5 5 6 7 7 4 2 3 6 7 10 13 15 17 19 21
11 10 8 7 6 6 5 5 6 6 6 5 4 4 4 5 6 6 8 9 12 14 12 10 8 7 5 5 6 7 7 6 3 2 5 7 9 12 14 15 18 20
12 11 10 8 7 6 6 5 6 6 5 5 4 4 5 5 5 6 7 9 11 13 11 9 8 7 6 6 6 7 8 7 5 3 4 6 9 12 14 15 17 18
12 12 11 10 8 8 7 6 6 5 5 4 5 5 5 4 5 6 7 8 11 12 11 8 8 7 6 5 6 7 8 9 7 6 6 7 9 12 13 14 16 16
13 12 11 11 10 9 8 7 6 5 4 4 5 5 5 4 4 5 6 8 11 12 11 8 7 7 6 5 5 7 9 10 9 8 8 9 10 12 13 14 15 15
14 13 12 11 10 9 9 8 7 6 5 5 5 5 4 3 4 5 5 7 10 12 11 8 7 7 6 4 5 7 9 10 11 10 10 10 11 11 12 13 14 15
16 15 14 12 11 10 9 8 8 7 6 5 5 5 4 4 4 4 5 6 8 11 11 9 6 6 5 4 4 7 9 10 11 12 11 11 11 11 12 12 13 14
18 17 15 13 11 10 9 9 8 8 7 6 6 5 5 4 4 5 5 5 7 9 11 10 7 5 4 3 3 6 8 9 10 11 12 13 13 11 11 11 12 12
19 18 16 14 12 10 9 8 9 8 7 7 7 6 5 5 5 5 5 5 6 8 10 10 8 5 3 3 3 4 6 7 8 9 11 14 15 13 11 11 11 10
20 18 15 13 11 10 10 9 10 9 8 7 7 7 6 5 5 5 5 5 6 7 9 10 9 6 3 2 2 3 4 5 7 8 10 12 14 14 12 11 10 9
20 18 15 13 12 11 11 11 11 11 10 8 8 8 7 6 5 6 6 6 6 7 8 10 10 7 4 3 2 2 4 5 6 7 9 10 13 15 13 11 10 9
20 18 16 14 13 13 12 11 11 12 11 10 9 9 8 7 7 7 7 7 6 6 7 9 10 9 5 3 3 2 3 5 6 6 7 9 11 14 14 10 10 10
21 19 17 16 15 14 14 13 13 12 11 11 10 10 9 9 8 8 8 8 7 6 7 8 9 10 7 4 3 3 4 6 6 6 6 8 10 13 13 10 9 10
22 21 19 18 16 16 15 14 14 13 13 13 13 12 11 11 10 9 9 8 8 7 7 8 9 10 8 5 4 4 5 7 6 5 6 7 9 11 11 9 9 10
23 22 21 20 18 17 16 16 16 15 15 14 14 14 13 13 11 10 10 9 9 8 7 8 8 10 9 7 5 5 5 7 6 5 5 6 7 10 9 7 9 10
23 23 23 22 20 18 17 18 18 17 16 15 15 15 15 15 13 12 11 10 10 9 8 8 8 9 9 8 6 5 6 6 5 5 5 5 7 8 7 6 8 10
24 24 24 23 22 20 19 19 20 19 17 17 17 17 17 15 14 13 12 12 10 10 8 7 8 8 8 7 6 5 5 4 4 5 5 5 5 6 4 5 7 9
24 25 25 25 23 22 22 21 21 21 19 18 19 18 18 17 16 15 14 13 11 10 9 8 8 9 8 7 6 5 4 4 5 6 5 5 4 3 3 5 7 8
24 25 25 25 25 25 25 23 23 22 21 20 20 20 20 20 19 17 15 14 12 10 10 8 8 8 8 6 6 6 5 5 6 6 6 5 3 2 4 6 7 8
23 24 25 26 26 27 27 25 24 23 22 22 22 22 21 20 20 19 17 15 13 12 10 9 8 7 7 6 6 6 6 7 8 7 6 5 2 3 5 6 7 7
22 24 25 26 26 27 28 27 26 24 23 23 23 23 22 20 19 20 18 17 15 13 12 10 8 7 7 6 6 6 7 8 9 8 7 5 3 6 5 4 5 5
22 24 26 27 27 28 28 28 28 26 25 25 24 24 23 20 19 20 19 18 16 15 13 11 9 8 8 7 5 6 7 8 9 9 7 6 6 7 5 3 3 4
Wind_Direction
231 239 251 243 233 227 222 233 251 297 324 315 316 327 337 344 348 350 350 350 349 349 349 347 345 341 334 337 346 349 356 0 15 36 34 31 30 27 20 14 10 11
225 234 246 240 227 222 222 231 242 282 323 320 323 330 339 348 352 348 346 348 348 347 347 344 339 333 328 340 356 355 355 358 23 43 37 38 36 30 23 17 12 11
223 229 235 238 236 234 235 239 243 266 295 306 322 330 339 351 352 341 339 344 347 349 348 342 334 326 328 353 6 5 0 1 39 48 39 41 35 25 19 14 12 13
217 223 230 238 246 249 252 256 254 257 269 285 307 321 335 349 346 333 336 343 348 352 351 345 338 332 338 359 10 12 8 8 54 53 36 36 29 21 16 12 10 12
217 222 227 235 244 251 258 260 251 245 252 269 290 311 327 343 344 335 336 342 350 354 352 349 348 345 349 3 11 17 15 11 43 49 29 28 23 15 13 9 7 8
224 224 225 235 241 243 247 248 243 240 245 259 276 301 320 334 337 335 338 344 353 356 353 353 355 354 357 5 13 20 20 12 15 32 23 21 16 9 7 6 4 4
227 225 228 236 238 237 238 245 252 249 247 259 274 295 314 325 328 333 339 348 356 358 355 356 358 359 1 6 15 23 24 20 15 6 6 6 2 359 1 3 3 1
228 229 231 234 237 241 241 246 256 251 248 263 280 299 312 315 320 331 340 350 360 1 358 357 359 1 4 9 20 27 29 28 21 5 350 348 349 352 359 2 0 359
231 232 233 233 238 243 240 240 246 242 244 262 279 304 315 305 307 326 338 350 1 2 359 357 358 3 6 14 32 35 32 28 21 8 351 343 344 349 358 0 358 0
234 235 235 237 241 244 240 237 240 239 245 258 277 304 312 293 293 312 330 346 358 2 1 357 357 4 6 19 39 37 32 28 23 17 5 354 348 348 355 359 359 3
234 234 237 240 243 244 239 235 241 243 245 256 278 302 304 288 288 298 314 337 352 360 3 0 356 2 6 20 40 36 34 33 29 26 19 9 358 352 355 2 3 3
234 234 238 241 241 239 236 237 242 241 241 256 274 288 294 287 283 286 298 325 345 356 3 3 355 351 356 10 32 33 34 34 29 25 22 17 10 3 1 5 7 4
235 235 239 243 242 239 238 241 239 234 238 256 268 273 283 285 280 280 290 313 337 348 357 1 358 342 336 347 4 18 24 23 18 14 15 16 14 10 8 9 11 8
236 236 241 245 243 240 242 244 239 235 239 249 254 260 272 279 275 275 283 300 323 338 347 356 357 344 315 304 327 351 357 357 358 359 2 8 11 11 8 8 14 13
236 236 239 241 239 235 237 242 241 237 239 243 247 254 265 269 264 267 274 284 305 324 337 347 351 345 322 281 284 325 341 338 335 340 347 353 3 8 5 5 14 14
235 235 237 237 234 230 232 237 236 234 237 242 246 251 257 258 255 259 264 272 288 307 324 337 343 341 329 288 269 293 330 333 319 317 333 342 354 3 3 5 15 16
235 234 235 236 234 230 231 232 232 233 235 239 243 246 248 248 248 253 257 264 276 291 309 324 334 338 330 297 268 276 308 327 315 298 315 334 349 1 3 6 16 20
235 233 233 235 234 231 231 230 230 232 233 234 238 241 242 243 245 249 254 260 267 277 295 310 323 333 330 302 272 267 289 315 311 285 296 324 347 360 2 9 22 26
235 233 232 233 233 233 233 230 229 229 230 233 236 237 239 241 244 249 252 254 260 268 284 298 312 326 328 309 279 262 278 304 302 274 280 312 342 357 2 15 28 28
235 233 232 233 233 233 232 230 229 229 231 233 235 235 235 237 241 246 248 250 257 264 276 291 306 321 324 312 286 262 270 292 281 254 268 302 337 356 8 27 33 29
235 233 232 232 233 231 231 230 229 229 230 231 233 234 237 239 243 247 247 248 254 261 270 287 302 309 312 308 289 261 260 272 251 241 260 293 333 358 24 47 40 34
236 233 232 232 232 230 230 231 230 230 230 230 232 236 239 240 243 246 247 246 249 255 263 278 292 296 301 303 285 256 245 235 223 231 252 283 327 9 64 64 46 38
240 235 233 233 231 231 231 232 232 232 232 230 230 233 237 239 240 244 246 245 246 251 257 267 281 286 290 291 271 247 232 218 217 225 243 274 310 73 98 72 51 42
248 242 238 236 233 234 234 234 234 234 233 231 229 231 235 239 241 242 243 244 246 251 254 260 273 278 274 271 259 242 226 213 215 222 237 262 264 133 113 76 57 48
259 251 245 240 240 242 241 238 237 236 234 232 231 232 236 239 240 239 239 242 246 249 251 255 269 274 264 257 252 234 217 210 213 219 233 243 196 145 126 90 66 52
269 260 252 245 244 248 248 244 241 238 235 232 231 232 234 236 238 236 238 242 244 243 245 254 268 272 261 255 246 216 200 200 205 215 230 223 179 154 140 121 86 56